Regional Weather Roundup
Issued by NWS

Home | Current Version | Previous Version | Graphics & Text | Print | Product List | Glossary On
Versions: 1 2 3 4 5 6 7 8 9 10 11 12 13 14 15 16 17 18 19 20 21 22 23 24 25 26 27 28 29 30 31 32 33 34 35 36 37 38 39 40 41 42 43 44 45 46 47 48 49 50
109
ASUS43 KIND 221359
RWRIN

WEATHER ROUNDUP FOR INDIANA
NATIONAL WEATHER SERVICE INDIANAPOLIS IN
900 AM EST SUN JAN 22 2017

NOTE: "FAIR" INDICATES FEW OR NO CLOUDS BELOW 12,000 FEET WITH NO
SIGNIFICANT WEATHER AND/OR OBSTRUCTIONS TO VISIBILITY.

* - STATION DOES NOT REPORT WEATHER SUCH AS PRECIPITATION OR FOG.

+ - STATION NOT QUALITY CONTROLLED BY THE NATIONAL WEATHER SERVICE.
    USE DATA WITH CAUTION...ESPECIALLY DEWPOINT AND RELATIVE
    HUMIDITY OBSERVATIONS.

INZ001>003-010>013-019-020-221500-
NORTHWEST INDIANA

CITY           SKY/WX    TMP DP  RH WIND       PRES   REMARKS
GARY /AIRPORT/ CLOUDY    41  41 100 NE5       29.62S VSB 1/4
KNOX *+        CLOUDY    36  32  87 N5        29.60R VSB 1/4
MONTICELLO +   CLOUDY    39  38  95 CALM      29.59R FOG

$$

LMZ046-743>745-221500-
SOUTHERN LAKE MICHIGAN

STATION/POSITION TIME  TEMP    WIND        PRES    WAVE
                       AIR SEA DIR/SP/G            HT
                 (UTC) (F)     (DEG/KT/KT) (MB)    (FT)
BURNS HARBOR     1340   35      80/  8/  9 1003.7S
MICHIGAN CITY    1330   36      30/  7/  8   N/A

$$

INZ004-005-014>016-021>024-221500-
NORTH CENTRAL INDIANA

CITY           SKY/WX    TMP DP  RH WIND       PRES   REMARKS
GOSHEN         FOG       40  38  93 NE3       29.59S VSB<1/4
SOUTH BEND     FOG       35  35 100 N7        29.62R VSB<1/4 WCI  29

$$

INZ006>009-017-018-025>027-221500-
NORTHEAST INDIANA

CITY           SKY/WX    TMP DP  RH WIND       PRES   REMARKS
ANGOLA *+      CLOUDY    36  34  93 CALM      29.59S VSB 0
FORT WAYNE     MOCLDY    48  45  89 SE6       29.60R
KENDALLVILLE + FOG       37  37 100 CALM      29.60R VSB<1/4

$$

INZ028-029-035-036-043>045-051>053-221500-
WEST CENTRAL INDIANA

CITY           SKY/WX    TMP DP  RH WIND       PRES   REMARKS
CRAWFORDSVL +  CLOUDY    48  48 100 SE7       29.57R
LAFAYETTE      PTCLDY    39  39 100 NE3       29.57R FOG
TERRE HAUTE    MOCLDY    47  45  93 NE3       29.57R

$$

INZ030>032-037>040-046>048-054>057-064-065-221500-
CENTRAL INDIANA

CITY           SKY/WX    TMP DP  RH WIND       PRES   REMARKS
COLUMBUS       CLEAR     43  43 100 N6        29.57S FOG
INDIANAPOLIS   CLOUDY    50  48  93 E6        29.57S
-EAGLE CREEK   CLOUDY    49  47  93 CALM      29.58R
KOKOMO +       CLOUDY    46  45  96 SE5       29.59R
MT COMFORT *+  CLOUDY    48  48 100 E6        29.59R
SHELBYVILLE    CLOUDY    51  47  86 E10       29.56F

$$

INZ033-034-041-042-049-050-058-059-221500-
EAST CENTRAL INDIANA

CITY           SKY/WX    TMP DP  RH WIND       PRES   REMARKS
MUNCIE         CLOUDY    51  46  83 SE6       29.59R

$$

INZ060-061-067>069-081>083-085>088-221500-
SOUTHWEST INDIANA

CITY           SKY/WX    TMP DP  RH WIND       PRES   REMARKS
EVANSVILLE     CLOUDY    51  47  86 N6        29.51F
HUNTINGBURG *+ CLOUDY    50  48  93 N7        29.53S

$$

INZ062-063-066-070>080-084-089>092-221500-
SOUTH CENTRAL AND SOUTHEAST INDIANA

CITY           SKY/WX    TMP DP  RH WIND       PRES   REMARKS
BLOOMINGTON    CLOUDY    46  43  89 CALM      29.56S
MADISON *+     CLOUDY    48  46  93 NE5       29.57S
SEYMOUR +      CLOUDY    46  46 100 CALM      29.56S FOG

$$





USA.gov is the U.S. government's official web portal to all federal, state and local government web resources and services.